2024-226B (62186 NORAD) Tracking and Keplerian Element Data

This shows tracking and keplerian element data for the satellite.

Feedback or suggestion? Click here.




ElementValue
Catalog62186
Name2024-226B
Epoch Orbit881
Epoch Day34.81036356
Epoch Year2025
RAAN354.5551
Inclination50.0077
Eccentricity0.0011738
Argument of Perigee1.0916
Mean Anonmoly358.9986
Mean Motion13.4139939
Decay Rate-2.5E-07
L11 62186U 24226B 25034.81036356 -.00000025 00000+0 18571-3 0 9997
L22 62186 50.0077 354.5551 0011738 1.0916 358.9986 13.41399390 8816



Live tracking and technical data element details for 2024-226B (NORAD 62186). 2024-226B can be tracked NOW for your location showing map with azimuth and elevation plus other details from your city location.







IsCatalogInMostPopularTable: catalog: 62186, numindb: 8
Update: records affected: 1



GetName: 62186 2024-226B

Hit Count: updated at: Sun, 18 May 2025 23:12:13 GMT